Hourly Data Report for October 15, 2016

All times are specified in Local Standard Time (LST). Add 1 hour to adjust for Daylight Saving Time where and when it is observed.

ST LEONARD CS
NEW BRUNSWICK

47°09'28.050" N
67°49'55.014" W
245.00 m
810I001
71019
WIY

Download Data

Hourly Data (October 2016)
Hourly Data Report for October 15, 2016
Temp Definition
°C
Dew Point Temp Definition
°C
Rel Hum Definition
%
Wind Dir Definition
10's deg

Wind Spd Definition
km/h
Visibility Definition
km
Stn Press Definition
kPa
Hmdx Definition


Wind Chill Definition


Weather Definition


TIME
00:00 -1.5 -3.4 87 29 2   99.83   -2 LegendNANA
01:00 -1.3 -3.1 88 33 2   99.93   -2 LegendNANA
02:00 -1.4 -3.0 89 29 3   99.96   -2 LegendNANA
03:00 -2.4 -3.4 92 26 2   99.93   -3 LegendNANA
04:00 -2.8 -3.5 95 1 2   99.93   -4 LegendNANA
05:00 -3.0 -3.6 95 14 4   99.96   -5 LegendNANA
06:00 -4.1 -4.8 95   0   99.97     LegendNANA
07:00 -4.5 -5.0 96 11 2   100.04   -5 LegendNANA
08:00 -2.5 -3.4 93 33 1   100.14   -3 LegendNANA
09:00 1.5 -1.5 81 23 3   100.10     LegendNANA
10:00 5.3 -0.3 67 17 3   100.05     LegendNANA
11:00 6.3 -1.1 59 17 9   100.05     LegendNANA
12:00 7.3 -1.0 56 16 8   100.00     LegendNANA
13:00 7.7 -1.5 52 18 7   99.92     LegendNANA
14:00 8.9 -1.5 48 24 8   99.85     LegendNANA
15:00 9.4 -1.9 45 16 11   99.75     LegendNANA
16:00 8.9 -3.3 42 16 11   99.72     LegendNANA
17:00 7.5 -3.1 47 17 11   99.66     LegendNANA
18:00 6.1 -2.4 54 17 9   99.62     LegendNANA
19:00 5.7 -1.9 58 15 11   99.55     LegendNANA
20:00 4.9 -1.7 62 14 11   99.51     LegendNANA
21:00 5.0 -1.5 63 15 14   99.45     LegendNANA
22:00 5.3 -1.1 63 16 13   99.42     LegendNANA
23:00 5.8 -0.6 63 17 18   99.31     LegendNANA

Notes on Data Quality.

Legend

  • E = Estimated
  • M = Missing
  • NA = Not Available
  • ‡ = Partner data that is not subject to review by the National Climate Archives
Date modified: